Year,Month,Day,Hour,Minute,Value (Times are PST for temperature in C)
2017,06,24,00,00,15.60
2017,06,24,00,01,15.60
2017,06,24,00,02,15.70
2017,06,24,00,03,15.70
2017,06,24,00,04,15.70
2017,06,24,00,05,15.70
2017,06,24,00,06,15.70
2017,06,24,00,07,15.70
2017,06,24,00,08,15.70
2017,06,24,00,09,15.70
2017,06,24,00,10,15.70
2017,06,24,00,11,15.70
2017,06,24,00,12,15.70
2017,06,24,00,13,15.80
2017,06,24,00,14,15.80
2017,06,24,00,15,15.80
2017,06,24,00,16,15.80
2017,06,24,00,17,15.80
2017,06,24,00,18,15.80
2017,06,24,00,19,15.80
2017,06,24,00,20,15.80
2017,06,24,00,21,15.80
2017,06,24,00,22,15.80
2017,06,24,00,23,15.80
2017,06,24,00,24,15.80
2017,06,24,00,25,15.90
2017,06,24,00,26,15.90
2017,06,24,00,27,15.90
2017,06,24,00,28,15.90
2017,06,24,00,29,15.90
2017,06,24,00,30,15.90
2017,06,24,00,31,16.00
2017,06,24,00,32,16.00
2017,06,24,00,33,16.00
2017,06,24,00,34,16.10
2017,06,24,00,35,16.10
2017,06,24,00,36,16.10
2017,06,24,00,37,16.20
2017,06,24,00,38,16.20
2017,06,24,00,39,16.20
2017,06,24,00,40,16.20
2017,06,24,00,41,16.20
2017,06,24,00,42,16.20
2017,06,24,00,43,16.20
2017,06,24,00,44,16.10
2017,06,24,00,45,16.10
2017,06,24,00,46,16.10
2017,06,24,00,47,16.10
2017,06,24,00,48,16.10
2017,06,24,00,49,16.10
2017,06,24,00,50,16.10
2017,06,24,00,51,16.00
2017,06,24,00,52,15.90
2017,06,24,00,53,15.70
2017,06,24,00,54,15.60
2017,06,24,00,55,15.40
2017,06,24,00,56,15.40
2017,06,24,00,57,15.30
2017,06,24,00,58,15.10
2017,06,24,00,59,15.00
2017,06,24,01,00,14.90
2017,06,24,01,01,14.90
2017,06,24,01,02,14.80
2017,06,24,01,03,14.80
2017,06,24,01,04,14.80
2017,06,24,01,05,14.80
2017,06,24,01,06,14.80
2017,06,24,01,07,14.80
2017,06,24,01,08,14.80
2017,06,24,01,09,14.80
2017,06,24,01,10,14.80
2017,06,24,01,11,14.80
2017,06,24,01,12,14.80
2017,06,24,01,13,14.90
2017,06,24,01,14,14.80
2017,06,24,01,15,14.80
2017,06,24,01,16,14.80
2017,06,24,01,17,14.80
2017,06,24,01,18,14.80
2017,06,24,01,19,14.80
2017,06,24,01,20,14.80
2017,06,24,01,21,14.80
2017,06,24,01,22,14.90
2017,06,24,01,23,14.90
2017,06,24,01,24,14.90
2017,06,24,01,25,14.90
2017,06,24,01,26,14.90
2017,06,24,01,27,14.90
2017,06,24,01,28,14.90
2017,06,24,01,29,14.90
2017,06,24,01,30,14.90
2017,06,24,01,31,14.90
2017,06,24,01,32,14.90
2017,06,24,01,33,15.00
2017,06,24,01,34,14.90
2017,06,24,01,35,14.90
2017,06,24,01,36,15.00
2017,06,24,01,37,15.00
2017,06,24,01,38,15.10
2017,06,24,01,39,15.10
2017,06,24,01,40,15.20
2017,06,24,01,41,15.30
2017,06,24,01,42,15.40
2017,06,24,01,43,15.50
2017,06,24,01,44,15.60
2017,06,24,01,45,15.70
2017,06,24,01,46,15.80
2017,06,24,01,47,15.80
2017,06,24,01,48,15.90
2017,06,24,01,49,15.90
2017,06,24,01,50,16.00
2017,06,24,01,51,16.10
2017,06,24,01,52,16.10
2017,06,24,01,53,16.20
2017,06,24,01,54,16.20
2017,06,24,01,55,16.20
2017,06,24,01,56,16.30
2017,06,24,01,57,16.30
2017,06,24,01,58,16.30
2017,06,24,01,59,16.30
2017,06,24,02,00,16.30
2017,06,24,02,01,16.30
2017,06,24,02,02,16.30
2017,06,24,02,03,16.40
2017,06,24,02,04,16.50
2017,06,24,02,05,16.50
2017,06,24,02,06,16.60
2017,06,24,02,07,16.60
2017,06,24,02,08,16.60
2017,06,24,02,09,16.60
2017,06,24,02,10,16.70
2017,06,24,02,11,16.70
2017,06,24,02,12,16.70
2017,06,24,02,13,16.80
2017,06,24,02,14,16.80
2017,06,24,02,15,16.80
2017,06,24,02,16,16.90
2017,06,24,02,17,16.90
2017,06,24,02,18,17.00
2017,06,24,02,19,17.00
2017,06,24,02,20,17.10
2017,06,24,02,21,17.10
2017,06,24,02,22,17.10
2017,06,24,02,23,17.20
2017,06,24,02,24,17.20
2017,06,24,02,25,17.20
2017,06,24,02,26,17.20
2017,06,24,02,27,17.20
2017,06,24,02,28,17.20
2017,06,24,02,29,17.20
2017,06,24,02,30,17.20
2017,06,24,02,31,17.20
2017,06,24,02,32,17.20
2017,06,24,02,33,17.20
2017,06,24,02,34,17.20
2017,06,24,02,35,17.20
2017,06,24,02,36,17.20
2017,06,24,02,37,17.20
2017,06,24,02,38,17.10
2017,06,24,02,39,17.10
2017,06,24,02,40,17.10
2017,06,24,02,41,17.10
2017,06,24,02,42,17.10
2017,06,24,02,43,17.10
2017,06,24,02,44,17.10
2017,06,24,02,45,17.10
2017,06,24,02,46,17.10
2017,06,24,02,47,17.10
2017,06,24,02,48,17.10
2017,06,24,02,49,17.10
2017,06,24,02,50,17.10
2017,06,24,02,51,17.10
2017,06,24,02,52,17.10
2017,06,24,02,53,17.10
2017,06,24,02,54,17.10
2017,06,24,02,55,17.10
2017,06,24,02,56,17.20
2017,06,24,02,57,17.20
2017,06,24,02,58,17.20
2017,06,24,02,59,17.20
2017,06,24,03,00,17.20
2017,06,24,03,01,17.20
2017,06,24,03,02,17.20
2017,06,24,03,03,17.20
2017,06,24,03,04,17.20
2017,06,24,03,05,17.20
2017,06,24,03,06,17.20
2017,06,24,03,07,17.20
2017,06,24,03,08,17.20
2017,06,24,03,09,17.20
2017,06,24,03,10,17.20
2017,06,24,03,11,17.20
2017,06,24,03,12,17.20
2017,06,24,03,13,17.20
2017,06,24,03,14,17.30
2017,06,24,03,15,17.30
2017,06,24,03,16,17.30
2017,06,24,03,17,17.30
2017,06,24,03,18,17.30
2017,06,24,03,19,17.30
2017,06,24,03,20,17.30
2017,06,24,03,21,17.30
2017,06,24,03,22,17.30
2017,06,24,03,23,17.30
2017,06,24,03,24,17.30
2017,06,24,03,25,17.30
2017,06,24,03,26,17.30
2017,06,24,03,27,17.40
2017,06,24,03,28,17.40
2017,06,24,03,29,17.40
2017,06,24,03,30,17.40
2017,06,24,03,31,17.40
2017,06,24,03,32,17.40
2017,06,24,03,33,17.40
2017,06,24,03,34,17.40
2017,06,24,03,35,17.40
2017,06,24,03,36,17.40
2017,06,24,03,37,17.40
2017,06,24,03,38,17.40
2017,06,24,03,39,17.40
2017,06,24,03,40,17.40
2017,06,24,03,41,17.40
2017,06,24,03,42,17.40
2017,06,24,03,43,17.40
2017,06,24,03,44,17.40
2017,06,24,03,45,17.40
2017,06,24,03,46,17.40
2017,06,24,03,47,17.40
2017,06,24,03,48,17.30
2017,06,24,03,49,17.30
2017,06,24,03,50,17.30
2017,06,24,03,51,17.30
2017,06,24,03,52,17.30
2017,06,24,03,53,17.30
2017,06,24,03,54,17.30
2017,06,24,03,55,17.20
2017,06,24,03,56,17.20
2017,06,24,03,57,17.20
2017,06,24,03,58,17.20
2017,06,24,03,59,17.20
2017,06,24,04,00,17.20
2017,06,24,04,01,17.10
2017,06,24,04,02,17.10
2017,06,24,04,03,17.10
2017,06,24,04,04,17.10
2017,06,24,04,05,17.10
2017,06,24,04,06,17.10
2017,06,24,04,07,17.10
2017,06,24,04,08,17.10
2017,06,24,04,09,17.10
2017,06,24,04,10,17.10
2017,06,24,04,11,17.10
2017,06,24,04,12,17.10
2017,06,24,04,13,17.10
2017,06,24,04,14,17.10
2017,06,24,04,15,17.10
2017,06,24,04,16,17.10
2017,06,24,04,17,17.10
2017,06,24,04,18,17.10
2017,06,24,04,19,17.10
2017,06,24,04,20,17.10
2017,06,24,04,21,17.10
2017,06,24,04,22,17.00
2017,06,24,04,23,17.00
2017,06,24,04,24,17.00
2017,06,24,04,25,17.00
2017,06,24,04,26,16.90
2017,06,24,04,27,16.90
2017,06,24,04,28,16.90
2017,06,24,04,29,16.90
2017,06,24,04,30,16.90
2017,06,24,04,31,16.90
2017,06,24,04,32,16.90
2017,06,24,04,33,16.90
2017,06,24,04,34,16.90
2017,06,24,04,35,16.90
2017,06,24,04,36,17.00
2017,06,24,04,37,17.00
2017,06,24,04,38,17.00
2017,06,24,04,39,17.10
2017,06,24,04,40,17.10
2017,06,24,04,41,17.10
2017,06,24,04,42,17.20
2017,06,24,04,43,17.20
2017,06,24,04,44,17.20
2017,06,24,04,45,17.20
2017,06,24,04,46,17.30
2017,06,24,04,47,17.30
2017,06,24,04,48,17.30
2017,06,24,04,49,17.30
2017,06,24,04,50,17.30
2017,06,24,04,51,17.30
2017,06,24,04,52,17.30
2017,06,24,04,53,17.30
2017,06,24,04,54,17.30
2017,06,24,04,55,17.30
2017,06,24,04,56,17.30
2017,06,24,04,57,17.20
2017,06,24,04,58,17.20
2017,06,24,04,59,17.20
2017,06,24,05,00,17.10
2017,06,24,05,01,17.10
2017,06,24,05,02,17.10
2017,06,24,05,03,17.10
2017,06,24,05,04,17.00
2017,06,24,05,05,17.00
2017,06,24,05,06,16.90
2017,06,24,05,07,16.90
2017,06,24,05,08,16.80
2017,06,24,05,09,16.80
2017,06,24,05,10,16.80
2017,06,24,05,11,16.80
2017,06,24,05,12,16.70
2017,06,24,05,13,16.70
2017,06,24,05,14,16.70
2017,06,24,05,15,16.70
2017,06,24,05,16,16.70
2017,06,24,05,17,16.70
2017,06,24,05,18,16.80
2017,06,24,05,19,16.80
2017,06,24,05,20,16.80
2017,06,24,05,21,16.70
2017,06,24,05,22,16.70
2017,06,24,05,23,16.70
2017,06,24,05,24,16.70
2017,06,24,05,25,16.70
2017,06,24,05,26,16.70
2017,06,24,05,27,16.80
2017,06,24,05,28,16.80
2017,06,24,05,29,16.80
2017,06,24,05,30,16.80
2017,06,24,05,31,16.70
2017,06,24,05,32,16.70
2017,06,24,05,33,16.70
2017,06,24,05,34,16.80
2017,06,24,05,35,16.80
2017,06,24,05,36,16.80
2017,06,24,05,37,16.80
2017,06,24,05,38,16.80
2017,06,24,05,39,16.80
2017,06,24,05,40,16.90
2017,06,24,05,41,16.90
2017,06,24,05,42,16.90
2017,06,24,05,43,16.90
2017,06,24,05,44,16.90
2017,06,24,05,45,17.00
2017,06,24,05,46,17.00
2017,06,24,05,47,17.00
2017,06,24,05,48,17.10
2017,06,24,05,49,17.10
2017,06,24,05,50,17.10
2017,06,24,05,51,17.10
2017,06,24,05,52,17.10
2017,06,24,05,53,17.20
2017,06,24,05,54,17.20
2017,06,24,05,55,17.20
2017,06,24,05,56,17.20
2017,06,24,05,57,17.20
2017,06,24,05,58,17.20
2017,06,24,05,59,17.20
2017,06,24,06,00,17.20
2017,06,24,06,01,17.20
2017,06,24,06,02,17.20
2017,06,24,06,03,17.20
2017,06,24,06,04,17.20
2017,06,24,06,05,17.20
2017,06,24,06,06,17.20
2017,06,24,06,07,17.20
2017,06,24,06,08,17.20
2017,06,24,06,09,17.20
2017,06,24,06,10,17.20
2017,06,24,06,11,17.20
2017,06,24,06,12,17.20
2017,06,24,06,13,17.20
2017,06,24,06,14,17.20
2017,06,24,06,15,17.20
2017,06,24,06,16,17.20
2017,06,24,06,17,17.20
2017,06,24,06,18,17.20
2017,06,24,06,19,17.20
2017,06,24,06,20,17.20
2017,06,24,06,21,17.20
2017,06,24,06,22,17.30
2017,06,24,06,23,17.30
2017,06,24,06,24,17.30
2017,06,24,06,25,17.30
2017,06,24,06,26,17.30
2017,06,24,06,27,17.30
2017,06,24,06,28,17.30
2017,06,24,06,29,17.30
2017,06,24,06,30,17.40
2017,06,24,06,31,17.40
2017,06,24,06,32,17.40
2017,06,24,06,33,17.30
2017,06,24,06,34,17.30
2017,06,24,06,35,17.40
2017,06,24,06,36,17.40
2017,06,24,06,37,17.40
2017,06,24,06,38,17.40
2017,06,24,06,39,17.40
2017,06,24,06,40,17.40
2017,06,24,06,41,17.40
2017,06,24,06,42,17.40
2017,06,24,06,43,17.40
2017,06,24,06,44,17.50
2017,06,24,06,45,17.50
2017,06,24,06,46,17.50
2017,06,24,06,47,17.50
2017,06,24,06,48,17.50
2017,06,24,06,49,17.60
2017,06,24,06,50,17.60
2017,06,24,06,51,17.60
2017,06,24,06,52,17.60
2017,06,24,06,53,17.60
2017,06,24,06,54,17.70
2017,06,24,06,55,17.70
2017,06,24,06,56,17.70
2017,06,24,06,57,17.70
2017,06,24,06,58,17.70
2017,06,24,06,59,17.70
2017,06,24,07,00,17.70
2017,06,24,07,01,17.70
2017,06,24,07,02,17.70
2017,06,24,07,03,17.70
2017,06,24,07,04,17.80
2017,06,24,07,05,17.80
2017,06,24,07,06,17.80
2017,06,24,07,07,17.80
2017,06,24,07,08,17.80
2017,06,24,07,09,17.80
2017,06,24,07,10,17.80
2017,06,24,07,11,17.80
2017,06,24,07,12,17.80
2017,06,24,07,13,17.80
2017,06,24,07,14,17.80
2017,06,24,07,15,17.90
2017,06,24,07,16,17.80
2017,06,24,07,17,17.80
2017,06,24,07,18,17.90
2017,06,24,07,19,17.90
2017,06,24,07,20,17.90
2017,06,24,07,21,17.90
2017,06,24,07,22,17.90
2017,06,24,07,23,17.90
2017,06,24,07,24,17.90
2017,06,24,07,25,17.90
2017,06,24,07,26,17.90
2017,06,24,07,27,17.90
2017,06,24,07,28,17.90
2017,06,24,07,29,17.90
2017,06,24,07,30,17.90
2017,06,24,07,31,17.90
2017,06,24,07,32,17.90
2017,06,24,07,33,17.90
2017,06,24,07,34,17.90
2017,06,24,07,35,17.90
2017,06,24,07,36,18.00
2017,06,24,07,37,18.00
2017,06,24,07,38,18.00
2017,06,24,07,39,18.00
2017,06,24,07,40,18.10
2017,06,24,07,41,18.10
2017,06,24,07,42,18.10
2017,06,24,07,43,18.10
2017,06,24,07,44,18.10
2017,06,24,07,45,18.10
2017,06,24,07,46,18.20
2017,06,24,07,47,18.20
2017,06,24,07,48,18.20
2017,06,24,07,49,18.30
2017,06,24,07,50,18.30
2017,06,24,07,51,18.30
2017,06,24,07,52,18.30
2017,06,24,07,53,18.30
2017,06,24,07,54,18.30
2017,06,24,07,55,18.30
2017,06,24,07,56,18.30
2017,06,24,07,57,18.30
2017,06,24,07,58,18.30
2017,06,24,07,59,18.30
2017,06,24,08,00,18.30
2017,06,24,08,01,18.30
2017,06,24,08,02,18.30
2017,06,24,08,03,18.40
2017,06,24,08,04,18.40
2017,06,24,08,05,18.40
2017,06,24,08,06,18.40
2017,06,24,08,07,18.40
2017,06,24,08,08,18.40
2017,06,24,08,09,18.50
2017,06,24,08,10,18.50
2017,06,24,08,11,18.60
2017,06,24,08,12,18.60
2017,06,24,08,13,18.60
2017,06,24,08,14,18.70
2017,06,24,08,15,18.70
2017,06,24,08,16,18.80
2017,06,24,08,17,18.80
2017,06,24,08,18,18.80
2017,06,24,08,19,18.90
2017,06,24,08,20,18.90
2017,06,24,08,21,18.90
2017,06,24,08,22,18.90
2017,06,24,08,23,19.00
2017,06,24,08,24,19.00
2017,06,24,08,25,19.10
2017,06,24,08,26,19.10
2017,06,24,08,27,19.10
2017,06,24,08,28,19.20
2017,06,24,08,29,19.20
2017,06,24,08,30,19.20
2017,06,24,08,31,19.30
2017,06,24,08,32,19.30
2017,06,24,08,33,19.30
2017,06,24,08,34,19.40
2017,06,24,08,35,19.40
2017,06,24,08,36,19.40
2017,06,24,08,37,19.40
2017,06,24,08,38,19.40
2017,06,24,08,39,19.40
2017,06,24,08,40,19.50
2017,06,24,08,41,19.50
2017,06,24,08,42,19.50
2017,06,24,08,43,19.50
2017,06,24,08,44,19.60
2017,06,24,08,45,19.60
2017,06,24,08,46,19.60
2017,06,24,08,47,19.60
2017,06,24,08,48,19.60
2017,06,24,08,49,19.60
2017,06,24,08,50,19.60
2017,06,24,08,51,19.70
2017,06,24,08,52,19.70
2017,06,24,08,53,19.70
2017,06,24,08,54,19.80
2017,06,24,08,55,19.80
2017,06,24,08,56,19.90
2017,06,24,08,57,19.90
2017,06,24,08,58,19.90
2017,06,24,08,59,19.90
2017,06,24,09,00,19.90
2017,06,24,09,01,19.90
2017,06,24,09,02,20.00
2017,06,24,09,03,20.00
2017,06,24,09,04,20.00
2017,06,24,09,05,20.10
2017,06,24,09,06,20.10
2017,06,24,09,07,20.10
2017,06,24,09,08,20.10
2017,06,24,09,09,20.20
2017,06,24,09,10,20.20
2017,06,24,09,11,20.20
2017,06,24,09,12,20.20
2017,06,24,09,13,20.20
2017,06,24,09,14,20.30
2017,06,24,09,15,20.30
2017,06,24,09,16,20.30
2017,06,24,09,17,20.30
2017,06,24,09,18,20.30
2017,06,24,09,19,20.40
2017,06,24,09,20,20.40
2017,06,24,09,21,20.40
2017,06,24,09,22,20.40
2017,06,24,09,23,20.50
2017,06,24,09,24,20.50
2017,06,24,09,25,20.60
2017,06,24,09,26,20.60
2017,06,24,09,27,20.60
2017,06,24,09,28,20.50
2017,06,24,09,29,20.50
2017,06,24,09,30,20.40
2017,06,24,09,31,20.40
2017,06,24,09,32,20.40
2017,06,24,09,33,20.40
2017,06,24,09,34,20.40
2017,06,24,09,35,20.40
2017,06,24,09,36,20.40
2017,06,24,09,37,20.40
2017,06,24,09,38,20.40
2017,06,24,09,39,20.40
2017,06,24,09,40,20.40
2017,06,24,09,41,20.50
2017,06,24,09,42,20.60
2017,06,24,09,43,20.60
2017,06,24,09,44,20.60
2017,06,24,09,45,20.60
2017,06,24,09,46,20.60
2017,06,24,09,47,20.60
2017,06,24,09,48,20.70
2017,06,24,09,49,20.70
2017,06,24,09,50,20.80
2017,06,24,09,51,20.80
2017,06,24,09,52,20.90
2017,06,24,09,53,20.90
2017,06,24,09,54,20.90
2017,06,24,09,55,21.00
2017,06,24,09,56,21.00
2017,06,24,09,57,21.00
2017,06,24,09,58,21.00
2017,06,24,09,59,21.00
2017,06,24,10,00,21.00
2017,06,24,10,01,21.00
2017,06,24,10,02,21.00
2017,06,24,10,03,21.00
2017,06,24,10,04,21.00
2017,06,24,10,05,21.00
2017,06,24,10,06,21.00
2017,06,24,10,07,21.00
2017,06,24,10,08,21.10
2017,06,24,10,09,21.10
2017,06,24,10,10,21.10
2017,06,24,10,11,21.20
2017,06,24,10,12,21.20
2017,06,24,10,13,21.30
2017,06,24,10,14,21.30
2017,06,24,10,15,21.30
2017,06,24,10,16,21.30
2017,06,24,10,17,21.40
2017,06,24,10,18,21.40
2017,06,24,10,19,21.50
2017,06,24,10,20,21.50
2017,06,24,10,21,21.50
2017,06,24,10,22,21.60
2017,06,24,10,23,21.70
2017,06,24,10,24,21.70
2017,06,24,10,25,21.70
2017,06,24,10,26,21.70
2017,06,24,10,27,21.70
2017,06,24,10,28,21.80
2017,06,24,10,29,21.80
2017,06,24,10,30,21.90
2017,06,24,10,31,21.90
2017,06,24,10,32,21.90
2017,06,24,10,33,22.00
2017,06,24,10,34,22.00
2017,06,24,10,35,22.00
2017,06,24,10,36,22.00
2017,06,24,10,37,22.10
2017,06,24,10,38,22.00
2017,06,24,10,39,22.00
2017,06,24,10,40,21.90
2017,06,24,10,41,21.90
2017,06,24,10,42,21.90
2017,06,24,10,43,21.90
2017,06,24,10,44,21.90
2017,06,24,10,45,21.90
2017,06,24,10,46,21.90
2017,06,24,10,47,21.90
2017,06,24,10,48,21.90
2017,06,24,10,49,21.90
2017,06,24,10,50,21.90
2017,06,24,10,51,22.00
2017,06,24,10,52,22.10
2017,06,24,10,53,22.20
2017,06,24,10,54,22.30
2017,06,24,10,55,22.40
2017,06,24,10,56,22.40
2017,06,24,10,57,22.40
2017,06,24,10,58,22.40
2017,06,24,10,59,22.40
2017,06,24,11,00,22.40
2017,06,24,11,01,22.40
2017,06,24,11,02,22.30
2017,06,24,11,03,22.30
2017,06,24,11,04,22.30
2017,06,24,11,05,22.30
2017,06,24,11,06,22.40
2017,06,24,11,07,22.40
2017,06,24,11,08,22.50
2017,06,24,11,09,22.60
2017,06,24,11,10,22.60
2017,06,24,11,11,22.70
2017,06,24,11,12,22.70
2017,06,24,11,13,22.80
2017,06,24,11,14,22.80
2017,06,24,11,15,22.70
2017,06,24,11,16,22.70
2017,06,24,11,17,22.80
2017,06,24,11,18,22.80
2017,06,24,11,19,22.80
2017,06,24,11,20,22.90
2017,06,24,11,21,22.90
2017,06,24,11,22,23.00
2017,06,24,11,23,23.00
2017,06,24,11,24,23.00
2017,06,24,11,25,23.00
2017,06,24,11,26,22.90
2017,06,24,11,27,22.90
2017,06,24,11,28,23.00
2017,06,24,11,29,23.00
2017,06,24,11,30,23.00
2017,06,24,11,31,23.00
2017,06,24,11,32,23.00
2017,06,24,11,33,23.10
2017,06,24,11,34,23.10
2017,06,24,11,35,23.10
2017,06,24,11,36,23.20
2017,06,24,11,37,23.20
2017,06,24,11,38,23.20
2017,06,24,11,39,23.20
2017,06,24,11,40,23.20
2017,06,24,11,41,23.20
2017,06,24,11,42,23.20
2017,06,24,11,43,23.30
2017,06,24,11,44,23.30
2017,06,24,11,45,23.40
2017,06,24,11,46,23.40
2017,06,24,11,47,23.50
2017,06,24,11,48,23.60
2017,06,24,11,49,23.60
2017,06,24,11,50,23.70
2017,06,24,11,51,23.70
2017,06,24,11,52,23.80
2017,06,24,11,53,23.80
2017,06,24,11,54,23.80
2017,06,24,11,55,23.90
2017,06,24,11,56,23.90
2017,06,24,11,57,23.90
2017,06,24,11,58,23.90
2017,06,24,11,59,24.00
2017,06,24,12,00,24.00
2017,06,24,12,01,24.00
2017,06,24,12,02,24.10
2017,06,24,12,03,24.10
2017,06,24,12,04,24.10
2017,06,24,12,05,24.10
2017,06,24,12,06,24.10
2017,06,24,12,07,24.10
2017,06,24,12,08,24.10
2017,06,24,12,09,24.10
2017,06,24,12,10,24.20
2017,06,24,12,11,24.20
2017,06,24,12,12,24.30
2017,06,24,12,13,24.30
2017,06,24,12,14,24.30
2017,06,24,12,15,24.30
2017,06,24,12,16,24.30
2017,06,24,12,17,24.30
2017,06,24,12,18,24.40
2017,06,24,12,19,24.40
2017,06,24,12,20,24.40
2017,06,24,12,21,24.40
2017,06,24,12,22,24.50
2017,06,24,12,23,24.60
2017,06,24,12,24,24.70
2017,06,24,12,25,24.80
2017,06,24,12,26,24.80
2017,06,24,12,27,24.90
2017,06,24,12,28,25.00
2017,06,24,12,29,25.00
2017,06,24,12,30,25.00
2017,06,24,12,31,25.10
2017,06,24,12,32,25.10
2017,06,24,12,33,25.10
2017,06,24,12,34,25.20
2017,06,24,12,35,25.30
2017,06,24,12,36,25.30
2017,06,24,12,37,25.20
2017,06,24,12,38,25.20
2017,06,24,12,39,25.30
2017,06,24,12,40,25.30
2017,06,24,12,41,25.30
2017,06,24,12,42,25.30
2017,06,24,12,43,25.30
2017,06,24,12,44,25.30
2017,06,24,12,45,25.30
2017,06,24,12,46,25.40
2017,06,24,12,47,25.40
2017,06,24,12,48,25.40
2017,06,24,12,49,25.40
2017,06,24,12,50,25.50
2017,06,24,12,51,25.50
2017,06,24,12,52,25.60
2017,06,24,12,53,25.60
2017,06,24,12,54,25.70
2017,06,24,12,55,25.80
2017,06,24,12,56,25.80
2017,06,24,12,57,25.80
2017,06,24,12,58,25.80
2017,06,24,12,59,25.80
2017,06,24,13,00,25.90
2017,06,24,13,01,26.00
2017,06,24,13,02,26.10
2017,06,24,13,03,26.10
2017,06,24,13,04,26.10
2017,06,24,13,05,26.10
2017,06,24,13,06,26.10
2017,06,24,13,07,26.10
2017,06,24,13,08,26.10
2017,06,24,13,09,26.10
2017,06,24,13,10,26.10
2017,06,24,13,11,26.00
2017,06,24,13,12,26.00
2017,06,24,13,13,26.00
2017,06,24,13,14,25.90
2017,06,24,13,15,25.80
2017,06,24,13,16,25.80
2017,06,24,13,17,25.80
2017,06,24,13,18,25.90
2017,06,24,13,19,25.90
2017,06,24,13,20,25.90
2017,06,24,13,21,26.00
2017,06,24,13,22,26.10
2017,06,24,13,23,26.20
2017,06,24,13,24,26.20
2017,06,24,13,25,26.30
2017,06,24,13,26,26.30
2017,06,24,13,27,26.30
2017,06,24,13,28,26.30
2017,06,24,13,29,26.40
2017,06,24,13,30,26.40
2017,06,24,13,31,26.50
2017,06,24,13,32,26.60
2017,06,24,13,33,26.60
2017,06,24,13,34,26.70
2017,06,24,13,35,26.70
2017,06,24,13,36,26.80
2017,06,24,13,37,26.90
2017,06,24,13,38,26.90
2017,06,24,13,39,27.00
2017,06,24,13,40,27.10
2017,06,24,13,41,27.20
2017,06,24,13,42,27.20
2017,06,24,13,43,27.20
2017,06,24,13,44,27.20
2017,06,24,13,45,27.20
2017,06,24,13,46,27.20
2017,06,24,13,47,27.20
2017,06,24,13,48,27.30
2017,06,24,13,49,27.30
2017,06,24,13,50,27.40
2017,06,24,13,51,27.40
2017,06,24,13,52,27.50
2017,06,24,13,53,27.50
2017,06,24,13,54,27.40
2017,06,24,13,55,27.40
2017,06,24,13,56,27.30
2017,06,24,13,57,27.30
2017,06,24,13,58,27.20
2017,06,24,13,59,27.20
2017,06,24,14,00,27.10
2017,06,24,14,01,27.10
2017,06,24,14,02,27.00
2017,06,24,14,03,26.80
2017,06,24,14,04,26.80
2017,06,24,14,05,26.70
2017,06,24,14,06,26.70
2017,06,24,14,07,26.60
2017,06,24,14,08,26.60
2017,06,24,14,09,26.70
2017,06,24,14,10,26.70
2017,06,24,14,11,26.80
2017,06,24,14,12,26.90
2017,06,24,14,13,26.80
2017,06,24,14,14,26.80
2017,06,24,14,15,26.80
2017,06,24,14,16,26.70
2017,06,24,14,17,26.80
2017,06,24,14,18,26.80
2017,06,24,14,19,26.80
2017,06,24,14,20,26.80
2017,06,24,14,21,26.70
2017,06,24,14,22,26.70
2017,06,24,14,23,26.70
2017,06,24,14,24,26.70
2017,06,24,14,25,26.70
2017,06,24,14,26,26.70
2017,06,24,14,27,26.80
2017,06,24,14,28,26.80
2017,06,24,14,29,26.90
2017,06,24,14,30,26.90
2017,06,24,14,31,27.00
2017,06,24,14,32,27.00
2017,06,24,14,33,26.90
2017,06,24,14,34,26.90
2017,06,24,14,35,26.90
2017,06,24,14,36,26.90
2017,06,24,14,37,26.90
2017,06,24,14,38,27.00
2017,06,24,14,39,27.10
2017,06,24,14,40,27.20
2017,06,24,14,41,27.30
2017,06,24,14,42,27.30
2017,06,24,14,43,27.30
2017,06,24,14,44,27.20
2017,06,24,14,45,27.20
2017,06,24,14,46,27.30
2017,06,24,14,47,27.30
2017,06,24,14,48,27.40
2017,06,24,14,49,27.40
2017,06,24,14,50,27.40
2017,06,24,14,51,27.50
2017,06,24,14,52,27.60
2017,06,24,14,53,27.60
2017,06,24,14,54,27.70
2017,06,24,14,55,27.70
2017,06,24,14,56,27.70
2017,06,24,14,57,27.70
2017,06,24,14,58,27.60
2017,06,24,14,59,27.60
2017,06,24,15,00,27.60
2017,06,24,15,01,27.50
2017,06,24,15,02,27.60
2017,06,24,15,03,27.60
2017,06,24,15,04,27.60
2017,06,24,15,05,27.50
2017,06,24,15,06,27.40
2017,06,24,15,07,27.40
2017,06,24,15,08,27.40
2017,06,24,15,09,27.40
2017,06,24,15,10,27.50
2017,06,24,15,11,27.50
2017,06,24,15,12,27.60
2017,06,24,15,13,27.70
2017,06,24,15,14,27.70
2017,06,24,15,15,27.80
2017,06,24,15,16,27.80
2017,06,24,15,17,27.90
2017,06,24,15,18,27.90
2017,06,24,15,19,27.90
2017,06,24,15,20,27.90
2017,06,24,15,21,27.90
2017,06,24,15,22,27.90
2017,06,24,15,23,27.90
2017,06,24,15,24,27.90
2017,06,24,15,25,27.90
2017,06,24,15,26,27.80
2017,06,24,15,27,27.80
2017,06,24,15,28,27.80
2017,06,24,15,29,27.80
2017,06,24,15,30,27.80
2017,06,24,15,31,27.80
2017,06,24,15,32,27.80
2017,06,24,15,33,27.70
2017,06,24,15,34,27.60
2017,06,24,15,35,27.60
2017,06,24,15,36,27.60
2017,06,24,15,37,27.60
2017,06,24,15,38,27.70
2017,06,24,15,39,27.80
2017,06,24,15,40,27.80
2017,06,24,15,41,27.80
2017,06,24,15,42,27.80
2017,06,24,15,43,27.80
2017,06,24,15,44,27.80
2017,06,24,15,45,27.90
2017,06,24,15,46,27.90
2017,06,24,15,47,27.90
2017,06,24,15,48,27.90
2017,06,24,15,49,28.00
2017,06,24,15,50,28.00
2017,06,24,15,51,28.00
2017,06,24,15,52,28.00
2017,06,24,15,53,28.00
2017,06,24,15,54,28.10
2017,06,24,15,55,28.10
2017,06,24,15,56,28.10
2017,06,24,15,57,28.20
2017,06,24,15,58,28.30
2017,06,24,15,59,28.30
2017,06,24,16,00,28.30
2017,06,24,16,01,28.30
2017,06,24,16,02,28.30
2017,06,24,16,03,28.30
2017,06,24,16,04,28.30
2017,06,24,16,05,28.30
2017,06,24,16,06,28.40
2017,06,24,16,07,28.40
2017,06,24,16,08,28.40
2017,06,24,16,09,28.40
2017,06,24,16,10,28.50
2017,06,24,16,11,28.50
2017,06,24,16,12,28.50
2017,06,24,16,13,28.60
2017,06,24,16,14,28.60
2017,06,24,16,15,28.60
2017,06,24,16,16,28.60
2017,06,24,16,17,28.60
2017,06,24,16,18,28.60
2017,06,24,16,19,28.60
2017,06,24,16,20,28.60
2017,06,24,16,21,28.70
2017,06,24,16,22,28.70
2017,06,24,16,23,28.70
2017,06,24,16,24,28.60
2017,06,24,16,25,28.60
2017,06,24,16,26,28.60
2017,06,24,16,27,28.60
2017,06,24,16,28,28.60
2017,06,24,16,29,28.70
2017,06,24,16,30,28.70
2017,06,24,16,31,28.70
2017,06,24,16,32,28.70
2017,06,24,16,33,28.70
2017,06,24,16,34,28.70
2017,06,24,16,35,28.80
2017,06,24,16,36,28.80
2017,06,24,16,37,28.80
2017,06,24,16,38,28.80
2017,06,24,16,39,28.70
2017,06,24,16,40,28.60
2017,06,24,16,41,28.60
2017,06,24,16,42,28.50
2017,06,24,16,43,28.40
2017,06,24,16,44,28.40
2017,06,24,16,45,28.30
2017,06,24,16,46,28.30
2017,06,24,16,47,28.30
2017,06,24,16,48,28.30
2017,06,24,16,49,28.20
2017,06,24,16,50,28.20
2017,06,24,16,51,28.20
2017,06,24,16,52,28.10
2017,06,24,16,53,28.10
2017,06,24,16,54,28.10
2017,06,24,16,55,28.10
2017,06,24,16,56,28.10
2017,06,24,16,57,28.10
2017,06,24,16,58,28.10
2017,06,24,16,59,28.10
2017,06,24,17,00,28.10
2017,06,24,17,01,28.10
2017,06,24,17,02,28.10
2017,06,24,17,03,28.10
2017,06,24,17,04,28.00
2017,06,24,17,05,28.00
2017,06,24,17,06,28.00
2017,06,24,17,07,28.00
2017,06,24,17,08,27.90
2017,06,24,17,09,27.90
2017,06,24,17,10,27.90
2017,06,24,17,11,27.90
2017,06,24,17,12,27.90
2017,06,24,17,13,27.90
2017,06,24,17,14,28.00
2017,06,24,17,15,28.00
2017,06,24,17,16,28.10
2017,06,24,17,17,28.10
2017,06,24,17,18,28.20
2017,06,24,17,19,28.30